Time,TemperatureF,DewpointF,PressureIn,WindDirection,WindDirectionDegrees,WindSpeedMPH,WindSpeedGustMPH,Humidity,HourlyPrecipIn,Conditions,Clouds,dailyrainin,SoftwareType,DateUTC
2013-02-22 00:01:00,18.0,12.0,29.98,NNE,30,15.0,-999.0,78,-99.99,,,-99.99,,2013-02-22 06:01:00,
2013-02-22 00:12:00,18.0,12.0,29.98,NNE,30,15.0,-999.0,78,-99.99,,,-99.99,,2013-02-22 06:12:00,
2013-02-22 00:22:00,18.0,12.0,29.98,NNE,30,15.0,-999.0,78,-99.99,,,-99.99,,2013-02-22 06:22:00,
2013-02-22 00:31:00,18.0,14.0,29.97,NNE,20,13.0,18.0,85,-99.99,,,-99.99,,2013-02-22 06:31:00,
2013-02-22 00:42:00,18.0,14.0,29.97,NNE,20,13.0,18.0,85,-99.99,,,-99.99,,2013-02-22 06:42:00,
2013-02-22 00:52:00,18.0,14.0,29.97,NNE,30,14.0,-999.0,85,-99.99,,,-99.99,,2013-02-22 06:52:00,
2013-02-22 01:01:00,18.0,14.0,29.97,NNE,30,14.0,-999.0,85,-99.99,,,-99.99,,2013-02-22 07:01:00,
2013-02-22 01:11:00,18.0,14.0,29.96,NNE,30,15.0,-999.0,85,-99.99,,,-99.99,,2013-02-22 07:11:00,
2013-02-22 01:21:00,18.0,14.0,29.96,NNE,30,15.0,-999.0,85,-99.99,,,-99.99,,2013-02-22 07:21:00,
2013-02-22 01:31:00,16.0,12.0,29.95,NNE,30,14.0,18.0,85,-99.99,,,-99.99,,2013-02-22 07:31:00,
2013-02-22 01:42:00,16.0,12.0,29.95,NNE,30,14.0,18.0,85,-99.99,,,-99.99,,2013-02-22 07:42:00,
2013-02-22 01:51:00,18.0,12.0,29.95,NNE,30,13.0,-999.0,78,-99.99,,,-99.99,,2013-02-22 07:51:00,
2013-02-22 02:01:00,18.0,12.0,29.95,NNE,30,13.0,-999.0,78,-99.99,,,-99.99,,2013-02-22 08:01:00,
2013-02-22 02:11:00,18.0,12.0,29.95,NNE,30,8.0,-999.0,78,-99.99,,,-99.99,,2013-02-22 08:11:00,
2013-02-22 02:21:00,18.0,12.0,29.95,NNE,30,8.0,-999.0,78,-99.99,,,-99.99,,2013-02-22 08:21:00,
2013-02-22 02:31:00,18.0,12.0,29.95,NNE,30,8.0,-999.0,78,-99.99,,,-99.99,,2013-02-22 08:31:00,
2013-02-22 02:42:00,18.0,12.0,29.95,NNE,30,8.0,-999.0,78,-99.99,,,-99.99,,2013-02-22 08:42:00,
2013-02-22 02:52:00,16.0,12.0,29.95,North,10,8.0,-999.0,85,-99.99,,,-99.99,,2013-02-22 08:52:00,
2013-02-22 03:03:00,16.0,12.0,29.95,North,10,8.0,-999.0,85,-99.99,,,-99.99,,2013-02-22 09:03:00,
2013-02-22 03:11:00,16.0,12.0,29.94,North,10,10.0,-999.0,85,-99.99,,,-99.99,,2013-02-22 09:11:00,
2013-02-22 03:21:00,16.0,12.0,29.94,North,10,10.0,-999.0,85,-99.99,,,-99.99,,2013-02-22 09:21:00,
2013-02-22 03:32:00,18.0,14.0,29.93,North,10,10.0,-999.0,85,-99.99,,,-99.99,,2013-02-22 09:32:00,
2013-02-22 03:42:00,18.0,14.0,29.93,North,10,10.0,-999.0,85,-99.99,,,-99.99,,2013-02-22 09:42:00,
2013-02-22 03:51:00,18.0,14.0,29.93,North,360,10.0,-999.0,85,-99.99,,,-99.99,,2013-02-22 09:51:00,
2013-02-22 04:01:00,18.0,14.0,29.93,North,360,10.0,-999.0,85,-99.99,,,-99.99,,2013-02-22 10:01:00,
2013-02-22 04:11:00,18.0,14.0,29.93,North,360,10.0,-999.0,85,-99.99,,,-99.99,,2013-02-22 10:11:00,
2013-02-22 04:21:00,18.0,14.0,29.93,North,360,10.0,-999.0,85,-99.99,,,-99.99,,2013-02-22 10:21:00,
2013-02-22 04:32:00,18.0,14.0,29.92,South,170,8.0,-999.0,85,-99.99,,,-99.99,,2013-02-22 10:32:00,
2013-02-22 04:42:00,18.0,14.0,29.92,South,170,8.0,-999.0,85,-99.99,,,-99.99,,2013-02-22 10:42:00,
2013-02-22 04:52:00,16.0,12.0,29.92,North,350,9.0,-999.0,85,-99.99,,,-99.99,,2013-02-22 10:52:00,
2013-02-22 05:01:00,16.0,12.0,29.92,North,350,9.0,-999.0,85,-99.99,,,-99.99,,2013-02-22 11:01:00,
2013-02-22 05:11:00,16.0,12.0,29.92,North,350,9.0,-999.0,85,-99.99,,,-99.99,,2013-02-22 11:11:00,
2013-02-22 05:21:00,16.0,12.0,29.92,North,350,9.0,-999.0,85,-99.99,,,-99.99,,2013-02-22 11:21:00,
2013-02-22 05:32:00,16.0,12.0,29.93,North,360,8.0,-999.0,85,-99.99,,,-99.99,,2013-02-22 11:32:00,
2013-02-22 05:42:00,16.0,12.0,29.93,North,360,8.0,-999.0,85,-99.99,,,-99.99,,2013-02-22 11:42:00,
2013-02-22 05:52:00,16.0,12.0,29.93,North,350,5.0,-999.0,85,-99.99,,,-99.99,,2013-02-22 11:52:00,
2013-02-22 06:02:00,16.0,12.0,29.93,North,350,5.0,-999.0,85,-99.99,,,-99.99,,2013-02-22 12:02:00,
2013-02-22 06:11:00,16.0,12.0,29.93,North,350,5.0,-999.0,85,-99.99,,,-99.99,,2013-02-22 12:11:00,
2013-02-22 06:22:00,16.0,12.0,29.93,North,350,5.0,-999.0,85,-99.99,,,-99.99,,2013-02-22 12:22:00,
2013-02-22 06:32:00,16.0,12.0,29.94,North,350,8.0,-999.0,85,-99.99,,,-99.99,,2013-02-22 12:32:00,
2013-02-22 06:42:00,16.0,12.0,29.94,North,350,8.0,-999.0,85,-99.99,,,-99.99,,2013-02-22 12:42:00,
2013-02-22 06:52:00,16.0,12.0,29.93,North,350,9.0,-999.0,85,-99.99,,,-99.99,,2013-02-22 12:52:00,
2013-02-22 07:02:00,16.0,12.0,29.93,North,350,9.0,-999.0,85,-99.99,,,-99.99,,2013-02-22 13:02:00,
2013-02-22 07:11:00,16.0,12.0,29.93,North,350,8.0,-999.0,85,-99.99,,,-99.99,,2013-02-22 13:11:00,
2013-02-22 07:22:00,16.0,12.0,29.93,North,350,8.0,-999.0,85,-99.99,,,-99.99,,2013-02-22 13:22:00,
2013-02-22 07:32:00,16.0,12.0,29.93,North,350,7.0,-999.0,85,-99.99,,,-99.99,,2013-02-22 13:32:00,
2013-02-22 07:42:00,16.0,12.0,29.93,North,350,7.0,-999.0,85,-99.99,,,-99.99,,2013-02-22 13:42:00,
2013-02-22 07:51:00,16.0,12.0,29.94,NNW,330,10.0,-999.0,85,-99.99,,,-99.99,,2013-02-22 13:51:00,
2013-02-22 08:01:00,16.0,12.0,29.94,NNW,330,10.0,-999.0,85,-99.99,,,-99.99,,2013-02-22 14:01:00,
2013-02-22 08:11:00,16.0,12.0,29.94,NNW,340,8.0,-999.0,85,-99.99,,,-99.99,,2013-02-22 14:11:00,
2013-02-22 08:21:00,16.0,12.0,29.94,NNW,340,8.0,-999.0,85,-99.99,,,-99.99,,2013-02-22 14:21:00,
2013-02-22 08:32:00,16.0,12.0,29.94,North,350,10.0,-999.0,85,-99.99,,,-99.99,,2013-02-22 14:32:00,
2013-02-22 08:42:00,16.0,12.0,29.94,North,350,10.0,-999.0,85,-99.99,,,-99.99,,2013-02-22 14:42:00,
2013-02-22 08:52:00,18.0,14.0,29.93,North,350,9.0,-999.0,85,-99.99,,,-99.99,,2013-02-22 14:52:00,
2013-02-22 09:01:00,18.0,14.0,29.93,North,350,9.0,-999.0,85,-99.99,,,-99.99,,2013-02-22 15:01:00,
2013-02-22 09:11:00,18.0,14.0,29.93,North,350,9.0,-999.0,85,-99.99,,,-99.99,,2013-02-22 15:11:00,
2013-02-22 09:21:00,18.0,14.0,29.93,North,350,9.0,-999.0,85,-99.99,,,-99.99,,2013-02-22 15:21:00,
2013-02-22 09:32:00,18.0,16.0,29.93,North,350,12.0,-999.0,92,-99.99,,,-99.99,,2013-02-22 15:32:00,
2013-02-22 09:42:00,18.0,16.0,29.93,North,350,12.0,-999.0,92,-99.99,,,-99.99,,2013-02-22 15:42:00,
2013-02-22 09:52:00,18.0,16.0,29.94,North,360,12.0,-999.0,92,-99.99,,,-99.99,,2013-02-22 15:52:00,
2013-02-22 10:01:00,18.0,16.0,29.94,North,360,12.0,-999.0,92,-99.99,,,-99.99,,2013-02-22 16:01:00,
2013-02-22 10:12:00,18.0,16.0,29.94,North,360,12.0,-999.0,92,-99.99,,,-99.99,,2013-02-22 16:12:00,
2013-02-22 10:22:00,18.0,16.0,29.94,North,360,12.0,-999.0,92,-99.99,,,-99.99,,2013-02-22 16:22:00,
2013-02-22 10:32:00,19.0,16.0,29.94,North,360,10.0,-999.0,85,-99.99,,,-99.99,,2013-02-22 16:32:00,
2013-02-22 10:42:00,19.0,16.0,29.94,North,360,10.0,-999.0,85,-99.99,,,-99.99,,2013-02-22 16:42:00,
2013-02-22 10:52:00,19.0,16.0,29.95,North,350,13.0,-999.0,85,-99.99,,,-99.99,,2013-02-22 16:52:00,
2013-02-22 11:01:00,19.0,16.0,29.95,North,350,13.0,-999.0,85,-99.99,,,-99.99,,2013-02-22 17:01:00,
2013-02-22 11:11:00,19.0,16.0,29.95,North,350,12.0,-999.0,85,-99.99,,,-99.99,,2013-02-22 17:11:00,
2013-02-22 11:21:00,19.0,16.0,29.95,North,350,12.0,-999.0,85,-99.99,,,-99.99,,2013-02-22 17:21:00,
2013-02-22 11:31:00,19.0,16.0,29.96,NNW,340,10.0,-999.0,85,-99.99,,,-99.99,,2013-02-22 17:31:00,
2013-02-22 11:42:00,19.0,16.0,29.96,NNW,340,10.0,-999.0,85,-99.99,,,-99.99,,2013-02-22 17:42:00,
2013-02-22 11:52:00,21.0,18.0,29.96,NNW,340,10.0,-999.0,85,-99.99,,,-99.99,,2013-02-22 17:52:00,
2013-02-22 12:01:00,21.0,18.0,29.96,NNW,340,10.0,-999.0,85,-99.99,,,-99.99,,2013-02-22 18:01:00,
2013-02-22 12:12:00,21.0,18.0,29.97,NNW,330,7.0,-999.0,85,-99.99,,,-99.99,,2013-02-22 18:12:00,
2013-02-22 12:22:00,21.0,18.0,29.97,NNW,330,7.0,-999.0,85,-99.99,,,-99.99,,2013-02-22 18:22:00,
2013-02-22 12:32:00,21.0,16.0,29.97,NW,320,10.0,-999.0,79,-99.99,,,-99.99,,2013-02-22 18:32:00,
2013-02-22 12:42:00,21.0,16.0,29.97,NW,320,10.0,-999.0,79,-99.99,,,-99.99,,2013-02-22 18:42:00,
2013-02-22 12:51:00,21.0,18.0,29.97,NW,310,8.0,-999.0,85,-99.99,,,-99.99,,2013-02-22 18:51:00,
2013-02-22 13:01:00,21.0,18.0,29.97,NW,310,8.0,-999.0,85,-99.99,,,-99.99,,2013-02-22 19:01:00,
2013-02-22 13:11:00,21.0,18.0,29.97,WNW,300,10.0,-999.0,85,-99.99,,,-99.99,,2013-02-22 19:11:00,
2013-02-22 13:21:00,21.0,18.0,29.97,WNW,300,10.0,-999.0,85,-99.99,,,-99.99,,2013-02-22 19:21:00,
2013-02-22 13:31:00,21.0,18.0,29.97,WNW,290,10.0,-999.0,85,-99.99,,,-99.99,,2013-02-22 19:31:00,
2013-02-22 13:41:00,21.0,18.0,29.97,WNW,290,10.0,-999.0,85,-99.99,,,-99.99,,2013-02-22 19:41:00,
2013-02-22 13:52:00,21.0,16.0,29.97,WNW,300,12.0,16.0,79,-99.99,,,-99.99,,2013-02-22 19:52:00,
2013-02-22 14:01:00,21.0,16.0,29.97,WNW,300,12.0,16.0,79,-99.99,,,-99.99,,2013-02-22 20:01:00,
2013-02-22 14:11:00,21.0,16.0,29.96,WNW,300,14.0,-999.0,79,-99.99,,,-99.99,,2013-02-22 20:11:00,
2013-02-22 14:21:00,21.0,16.0,29.96,WNW,300,14.0,-999.0,79,-99.99,,,-99.99,,2013-02-22 20:21:00,
2013-02-22 14:31:00,21.0,16.0,29.96,WNW,300,13.0,18.0,79,-99.99,,,-99.99,,2013-02-22 20:31:00,
2013-02-22 14:41:00,21.0,16.0,29.96,WNW,300,13.0,18.0,79,-99.99,,,-99.99,,2013-02-22 20:41:00,
2013-02-22 14:52:00,23.0,18.0,29.96,West,280,13.0,-999.0,79,-99.99,,,-99.99,,2013-02-22 20:52:00,
2013-02-22 15:01:00,23.0,18.0,29.96,West,280,13.0,-999.0,79,-99.99,,,-99.99,,2013-02-22 21:01:00,
2013-02-22 15:11:00,21.0,18.0,29.95,West,280,14.0,18.0,85,-99.99,,,-99.99,,2013-02-22 21:11:00,
2013-02-22 15:21:00,21.0,18.0,29.95,West,280,14.0,18.0,85,-99.99,,,-99.99,,2013-02-22 21:21:00,
2013-02-22 15:32:00,21.0,18.0,29.95,West,280,15.0,-999.0,85,-99.99,,,-99.99,,2013-02-22 21:32:00,
2013-02-22 15:42:00,21.0,18.0,29.95,West,280,15.0,-999.0,85,-99.99,,,-99.99,,2013-02-22 21:42:00,
2013-02-22 15:51:00,21.0,18.0,29.95,WNW,290,13.0,17.0,85,-99.99,,,-99.99,,2013-02-22 21:51:00,
2013-02-22 16:01:00,21.0,18.0,29.95,WNW,290,13.0,17.0,85,-99.99,,,-99.99,,2013-02-22 22:01:00,
2013-02-22 16:11:00,23.0,18.0,29.96,WNW,290,10.0,15.0,79,-99.99,,,-99.99,,2013-02-22 22:11:00,
2013-02-22 16:21:00,23.0,18.0,29.96,WNW,290,10.0,15.0,79,-99.99,,,-99.99,,2013-02-22 22:21:00,
2013-02-22 16:31:00,23.0,18.0,29.96,WNW,300,12.0,-999.0,79,-99.99,,,-99.99,,2013-02-22 22:31:00,
2013-02-22 16:41:00,23.0,18.0,29.96,WNW,300,12.0,-999.0,79,-99.99,,,-99.99,,2013-02-22 22:41:00,
2013-02-22 16:51:00,25.0,19.0,29.96,WNW,300,12.0,-999.0,79,-99.99,,,-99.99,,2013-02-22 22:51:00,
2013-02-22 17:01:00,25.0,19.0,29.96,WNW,300,12.0,-999.0,79,-99.99,,,-99.99,,2013-02-22 23:01:00,
2013-02-22 17:11:00,25.0,18.0,29.96,NNW,330,10.0,-999.0,73,-99.99,,,-99.99,,2013-02-22 23:11:00,
2013-02-22 17:21:00,25.0,18.0,29.96,NNW,330,10.0,-999.0,73,-99.99,,,-99.99,,2013-02-22 23:21:00,
2013-02-22 17:31:00,25.0,18.0,29.96,NW,310,10.0,-999.0,73,-99.99,,,-99.99,,2013-02-22 23:31:00,
2013-02-22 17:41:00,25.0,18.0,29.96,NW,310,10.0,-999.0,73,-99.99,,,-99.99,,2013-02-22 23:41:00,
2013-02-22 17:52:00,23.0,16.0,29.97,NW,320,9.0,-999.0,73,-99.99,,,-99.99,,2013-02-22 23:52:00,
2013-02-22 18:01:00,23.0,16.0,29.97,NW,320,9.0,-999.0,73,-99.99,,,-99.99,,2013-02-23 00:01:00,
2013-02-22 18:11:00,23.0,16.0,29.97,NW,320,9.0,-999.0,73,-99.99,,,-99.99,,2013-02-23 00:11:00,
2013-02-22 18:21:00,23.0,16.0,29.97,NW,320,9.0,-999.0,73,-99.99,,,-99.99,,2013-02-23 00:21:00,
2013-02-22 18:32:00,21.0,18.0,29.98,West,270,9.0,-999.0,85,-99.99,,,-99.99,,2013-02-23 00:32:00,
2013-02-22 18:42:00,21.0,18.0,29.98,West,270,9.0,-999.0,85,-99.99,,,-99.99,,2013-02-23 00:42:00,
2013-02-22 18:52:00,19.0,16.0,29.98,West,260,10.0,16.0,85,-99.99,,,-99.99,,2013-02-23 00:52:00,
2013-02-22 19:01:00,19.0,16.0,29.98,West,260,10.0,16.0,85,-99.99,,,-99.99,,2013-02-23 01:01:00,
2013-02-22 19:11:00,19.0,16.0,29.98,West,280,15.0,-999.0,85,-99.99,,,-99.99,,2013-02-23 01:11:00,
2013-02-22 19:21:00,19.0,16.0,29.98,West,280,15.0,-999.0,85,-99.99,,,-99.99,,2013-02-23 01:21:00,
2013-02-22 19:31:00,19.0,16.0,29.98,West,280,15.0,-999.0,85,-99.99,,,-99.99,,2013-02-23 01:31:00,
2013-02-22 19:42:00,19.0,16.0,29.98,West,280,15.0,-999.0,85,-99.99,,,-99.99,,2013-02-23 01:42:00,
2013-02-22 19:51:00,18.0,14.0,29.97,WNW,290,13.0,17.0,85,-99.99,,,-99.99,,2013-02-23 01:51:00,
2013-02-22 20:01:00,18.0,14.0,29.97,WNW,290,13.0,17.0,85,-99.99,,,-99.99,,2013-02-23 02:01:00,
2013-02-22 20:11:00,18.0,14.0,29.97,WNW,290,10.0,15.0,85,-99.99,,,-99.99,,2013-02-23 02:11:00,
2013-02-22 20:21:00,18.0,14.0,29.97,WNW,290,10.0,15.0,85,-99.99,,,-99.99,,2013-02-23 02:21:00,
2013-02-22 20:31:00,18.0,14.0,29.97,West,280,8.0,-999.0,85,-99.99,,,-99.99,,2013-02-23 02:31:00,
2013-02-22 20:42:00,18.0,14.0,29.97,West,280,8.0,-999.0,85,-99.99,,,-99.99,,2013-02-23 02:42:00,
2013-02-22 20:52:00,18.0,12.0,29.97,West,280,7.0,-999.0,78,-99.99,,,-99.99,,2013-02-23 02:52:00,
2013-02-22 21:01:00,18.0,12.0,29.97,West,280,7.0,-999.0,78,-99.99,,,-99.99,,2013-02-23 03:01:00,
2013-02-22 21:11:00,16.0,12.0,29.97,West,270,5.0,-999.0,85,-99.99,,,-99.99,,2013-02-23 03:11:00,
2013-02-22 21:21:00,16.0,12.0,29.97,West,270,5.0,-999.0,85,-99.99,,,-99.99,,2013-02-23 03:21:00,
2013-02-22 21:32:00,16.0,10.0,29.96,West,280,6.0,-999.0,78,-99.99,,,-99.99,,2013-02-23 03:32:00,
2013-02-22 21:41:00,16.0,10.0,29.96,West,280,6.0,-999.0,78,-99.99,,,-99.99,,2013-02-23 03:41:00,
2013-02-22 21:51:00,16.0,10.0,29.96,West,270,5.0,-999.0,78,-99.99,,,-99.99,,2013-02-23 03:51:00,
2013-02-22 22:01:00,16.0,10.0,29.96,West,270,5.0,-999.0,78,-99.99,,,-99.99,,2013-02-23 04:01:00,
2013-02-22 22:11:00,16.0,10.0,29.96,West,260,5.0,-999.0,78,-99.99,,,-99.99,,2013-02-23 04:11:00,
2013-02-22 22:21:00,16.0,10.0,29.96,West,260,5.0,-999.0,78,-99.99,,,-99.99,,2013-02-23 04:21:00,
2013-02-22 22:31:00,14.0,10.0,29.96,North,0,0.0,-999.0,85,-99.99,,,-99.99,,2013-02-23 04:31:00,
2013-02-22 22:41:00,14.0,10.0,29.96,North,0,0.0,-999.0,85,-99.99,,,-99.99,,2013-02-23 04:41:00,
2013-02-22 22:51:00,12.0,9.0,29.96,North,0,0.0,-999.0,85,-99.99,,,-99.99,,2013-02-23 04:51:00,
2013-02-22 23:02:00,12.0,9.0,29.96,North,0,0.0,-999.0,85,-99.99,,,-99.99,,2013-02-23 05:02:00,
2013-02-22 23:12:00,12.0,9.0,29.97,North,0,0.0,-999.0,85,-99.99,,,-99.99,,2013-02-23 05:12:00,
2013-02-22 23:22:00,12.0,9.0,29.97,North,0,0.0,-999.0,85,-99.99,,,-99.99,,2013-02-23 05:22:00,
2013-02-22 23:32:00,10.0,7.0,29.96,North,0,0.0,-999.0,85,-99.99,,,-99.99,,2013-02-23 05:32:00,
2013-02-22 23:41:00,10.0,7.0,29.96,North,0,0.0,-999.0,85,-99.99,,,-99.99,,2013-02-23 05:41:00,
2013-02-22 23:52:00,9.0,5.0,29.96,North,0,0.0,-999.0,84,-99.99,,,-99.99,,2013-02-23 05:52:00,